Erie, PA

7:36 PM EST on December 10, 2019 (GMT -0500)
Erie International

Weather History for KERI - August, 2019

Change the Weather History Date:

Saturday, August 24, 2019

  Actual Average Record
Temperature  
Mean Temperature 66 °F 70 °F  
Max Temperature 73 °F 78 °F 89 °F (1968)
Min Temperature 60 °F 62 °F 41 °F (1971)
Degree Days  
Heating Degree Days 0 0  
Month to date heating degree days 0 0  
Since 1 June heating degree days 38 68  
Since 1 July heating degree days 0 7  
Cooling Degree Days 2 5  
Month to date cooling degree days 195 150  
Year to date cooling degree days 660 525  
Since 1 June cooling degree days 627 486  
Growing Degree Days 16 (Base 50)    
Moisture  
Dew Point 51 °F    
Average Humidity 56    
Maximum Humidity 72    
Minimum Humidity 38    
Precipitation  
Precipitation 0.00 in 0.11 in 2.06 in (1979)
Month to date precipitation 3.41 2.70  
Year to date precipitation 25.91 25.06  
Snow  
Snow 0.00 in 0.00 in - ()
Month to date snowfall 0.0 0.0  
Since 1 June snowfall 0.0 0.0  
Since 1 July snowfall 0.0 0.0  
Snow Depth 0.00 in    
Sea Level Pressure  
Sea Level Pressure 30.25 in    
Wind  
Wind Speed 8 mph ()    
Max Wind Speed 21 mph    
Max Gust Speed 26 mph    
Visibility 10.0 miles    
Events      
T = Trace of Precipitation, MM = Missing Value Source: Averaged Metar Reports

Daily Weather History Graph

Daily Weather History Graph

Search for Another Location

Airport or City:

Astronomy

Aug. 24, 2019 Rise Set
Actual Time 6:37 AM EDT 8:07 PM EDT
Civil Twilight 6:08 AM EDT 8:37 PM EDT
Nautical Twilight 5:32 AM EDT 9:12 PM EDT
Astronomical Twilight 4:55 AM EDT 9:49 PM EDT
Moon 12:27 AM EDT (8/24) 3:24 PM EDT (8/24)
Length of Visible Light 14h 28m
Length of Day
13h 30m
Last Quarter, 39% of the Moon is Illuminated
Aug 24
Last Quarter
Aug 30
New
Sep 5
First Quarter
Sep 14
Full
Sep 21
Last Quarter

Hourly Weather History & Observations

Time (EDT) Temp. Dew Point Humidity Pressure Visibility Wind Dir Wind Speed Gust Speed Precip Events Conditions
12:51 AM 66.0 °F 48.9 °F 54% 30.19 in 10.0 mi ENE 6.9 mph - N/A   Overcast
1:51 AM 66.0 °F 51.1 °F 59% 30.20 in 10.0 mi ENE 11.5 mph - N/A   Overcast
2:51 AM 66.0 °F 51.1 °F 59% 30.20 in 10.0 mi ENE 9.2 mph - N/A   Mostly Cloudy
3:51 AM 64.0 °F 51.1 °F 63% 30.21 in 10.0 mi East 4.6 mph - N/A   Overcast
4:51 AM 64.0 °F 51.1 °F 63% 30.22 in 10.0 mi East 5.8 mph - N/A   Overcast
5:51 AM 63.0 °F 51.1 °F 65% 30.22 in 10.0 mi East 4.6 mph - N/A   Overcast
6:51 AM 61.0 °F 51.1 °F 70% 30.25 in 10.0 mi Calm Calm - N/A   Scattered Clouds
7:51 AM 62.1 °F 52.0 °F 70% 30.27 in 10.0 mi Calm Calm - N/A   Mostly Cloudy
8:51 AM 66.9 °F 52.0 °F 59% 30.27 in 10.0 mi East 6.9 mph - N/A   Overcast
9:51 AM 69.1 °F 50.0 °F 51% 30.27 in 10.0 mi ENE 10.4 mph - N/A   Scattered Clouds
10:51 AM 71.1 °F 50.0 °F 47% 30.27 in 10.0 mi ENE 10.4 mph 19.6 mph N/A   Scattered Clouds
11:51 AM 71.1 °F 48.9 °F 45% 30.27 in 10.0 mi NNE 12.7 mph - N/A   Partly Cloudy
12:51 PM 72.0 °F 50.0 °F 46% 30.27 in 10.0 mi NE 16.1 mph - N/A   Clear
1:51 PM 72.0 °F 45.0 °F 38% 30.26 in 10.0 mi NNE 16.1 mph 21.9 mph N/A   Clear
2:51 PM 73.0 °F 50.0 °F 44% 30.25 in 10.0 mi NE 15.0 mph - N/A   Clear
3:51 PM 72.0 °F 50.0 °F 46% 30.24 in 10.0 mi NNE 17.3 mph - N/A   Partly Cloudy
4:51 PM 72.0 °F 51.1 °F 48% 30.24 in 10.0 mi NE 16.1 mph - N/A   Mostly Cloudy
5:51 PM 71.1 °F 52.0 °F 51% 30.24 in 10.0 mi NE 15.0 mph - N/A   Partly Cloudy
6:51 PM 70.0 °F 52.0 °F 53% 30.25 in 10.0 mi NE 13.8 mph - N/A   Clear
7:51 PM 68.0 °F 52.0 °F 56% 30.25 in 10.0 mi NE 13.8 mph - N/A   Clear
8:51 PM 66.0 °F 52.0 °F 60% 30.26 in 10.0 mi ENE 9.2 mph - N/A   Clear
9:51 PM 64.0 °F 52.0 °F 65% 30.27 in 10.0 mi East 5.8 mph - N/A   Clear
10:51 PM 63.0 °F 52.0 °F 67% 30.26 in 10.0 mi East 4.6 mph - N/A   Clear
11:51 PM 63.0 °F 52.0 °F 67% 30.27 in 10.0 mi East 5.8 mph - N/A   Clear